sat.trackr.live / text

‹ back to catalog

CSG-3

NORAD 67304 · 2026-001A

PAYLOAD ACTIVE UNKNOWN

§ Identity

Operator
Country
IT
Launch date
2026-01-03
Launch site
AFWTR
Launch vehicle
Mass (kg)
RCS (m²)

Purposes: earth_obs

External: N2YO · Heavens-Above · Gunter

§ Orbital elements

Epoch: 2026-05-25T02:39:00.288000Z

Period
97.16 min
Inclination
97.8885°
Eccentricity
0.0001303
Mean motion
14.82149995 rev/d
Perigee alt
621.6 km
Apogee alt
623.5 km
Semi-major
7,000.7 km
B*
3.5518e-5
RAAN
329.0468°
Arg perigee
90.4872°
Mean anomaly
269.6490°
Rev number
2,104

§ Raw data

CSG-31 67304U 26001A   26145.11042000  .00000231  00000+0  35518-4 0  99962 67304  97.8885 329.0468 0001303  90.4872 269.6490 14.82149995 21041

JSON: /api/v1/satellites/67304 · /tle

For live sub-satellite position, see the globe view (requires WebGL).

§ Visibility from observer

Set your observer location to see the next 7 days of passes ≥ 10°. The values pass through the URL so the page stays shareable.

No JS? Fill the form by hand. The geolocation button needs JavaScript.